Other Public Products
Issued by NWS Grand Forks, ND

Home | Current Version | Previous Version | Graphics & Text | Print | Product List | Glossary On
Versions: 1 2 3 4 5 6 7 8 9 10 11 12 13 14 15 16 17 18 19 20 21 22 23 24 25 26 27 28 29 30 31 32 33 34 35 36 37 38 39 40 41 42 43 44 45 46 47 48 49 50
000
FPUS83 KFGF 280010
OPUFGF
PRAIRIE TO PINES WEATHER ROUNDUP
NATIONAL WEATHER SERVICE EASTERN NORTH DAKOTA/GRAND FORKS ND
700 PM CDT WED JUL 27 2016

 **SATELLITE DATA USED TO AUGMENT SKY COVER AT AUTOMATED STATIONS**
 *****  WEATHER ACROSS EASTERN NORTH DAKOTA  *****

CITY           SKY/WX    TMP DP  RH WIND       PRES   REMARKS
GRAND FORKS    MOSUNNY   75  59  57 N13       30.03S
6HR MIN TEMP:  75; 6HR MAX TEMP:  78;

GRAND FORKS AF SUNNY     74  58  55 N14       30.05S
GRAND CITY NWS   N/A     73 N/A N/A N16         N/A
BUXTON           N/A     76  61  59 N14         N/A
DEVILS LAKE    PTSUNNY   71  53  52 N14       30.11S
6HR MIN TEMP:  70; 6HR MAX TEMP:  73;

FARGO          MOSUNNY   77  58  51 N13       30.01S
6HR MIN TEMP:  77; 6HR MAX TEMP:  79;

WAHPETON ARPT  CLEAR     73  54  49 N13       30.02R
$$

 *****  WEATHER ACROSS CENTRAL AND WESTERN NORTH DAKOTA  *****

CITY           SKY/WX    TMP DP  RH WIND       PRES   REMARKS
JAMESTOWN      MOSUNNY   73  59  61 N7        30.08R
6HR MIN TEMP:  73; 6HR MAX TEMP:  76;

BISMARCK       PTSUNNY   74  61  63 E5        30.09R
6HR MIN TEMP:  74; 6HR MAX TEMP:  78;

MINOT          CLOUDY    75  59  57 NE8       30.11S
6HR MIN TEMP:  75; 6HR MAX TEMP:  80;

MINOT AFB      PTSUNNY   73  57  56 NE7       30.11S
6HR MIN TEMP:  73; 6HR MAX TEMP:  76;

GARRISON         N/A     72  59  63 E9        30.11R
6HR MIN TEMP:  72; 6HR MAX TEMP:  77;

WILLISTON      PTSUNNY   68  61  78 E9        30.13F
6HR MIN TEMP:  65; 6HR MAX TEMP:  74; 6HR PCP:  0.03;

DICKINSON      CLOUDY    73  58  59 NE7       30.10F
6HR MIN TEMP:  70; 6HR MAX TEMP:  74;

HETTINGER      MOSUNNY   75  59  57 NE8       30.13F
6HR MIN TEMP:  65; 6HR MAX TEMP:  75; 6HR PCP:  0.01;

$$

 *****  OTHER OBSERVATIONS NORTHEAST NORTH DAKOTA  *****

CITY           SKY/WX    TMP DP  RH WIND       PRES   REMARKS
WALHALLA       NOT AVBL
LANGDON        FAIR      68  57  68 NE10      30.12S
CAVALIER       FAIR      72  55  56 N10       30.08S
GRAFTON        FAIR      73  57  56 N15       30.07S
CANDO          NOT AVBL
FORT TOTTEN    NOT AVBL
ROLLA          FAIR      68  54  60 NE14      30.14S
RUGBY          NOT AVBL
 ***** THE ABOVE OBSERVATIONS ARE NON NWS ARE NOT QUALITY
        CONTROLLED AND MAY MIS-REPORT RAIN FOR SNOW...
$$

 *****  OTHER OBSERVATIONS SOUTHEAST NORTH DAKOTA *****

CITY           SKY/WX    TMP DP  RH WIND       PRES   REMARKS
COOPERSTOWN    NOT AVBL
VALLEY CITY    FAIR      73  59  60 N10       30.09R
OAKES            N/A    N/A N/A N/A MISG        N/A
GWINNER        FAIR      75  57  53 N10       30.06R
SHEYENNE NWR     N/A     77  56  48 N8        29.95S
BUFFALO          N/A     73  49  42 N10         N/A
WYNDMERE         N/A     75  57  53 N10         N/A
 ***** THE ABOVE OBSERVATIONS ARE NON NWS ARE NOT QUALITY
       CONTROLLED AND MAY MIS-REPORT RAIN FOR SNOW...
$$

  *****  WEATHER ACROSS NORTHERN MINNESOTA  *****

CITY           SKY/WX    TMP DP  RH WIND       PRES   REMARKS
FLAG ISLAND    SUNNY     72  55  56 N14       30.07R
WARROAD        SUNNY     73  63  68 NE14      30.07S
ROSEAU         SUNNY     73  63  68 E10       30.05S
HALLOCK        SUNNY     73  59  60 N12       30.05S
THF RVR FALLS  MOSUNNY   75  60  59 NE12      30.04S
6HR MIN TEMP:  73; 6HR MAX TEMP:  79;

HALSTAD          N/A     77  61  57 N14         N/A
FOSSTON        CLOUDY    73  63  68 CALM      30.03S
BAUDETTE       SUNNY     74  58  57 N10       30.05R
6HR MIN TEMP:  74; 6HR MAX TEMP:  80;

WASKISH        MOSUNNY   75  63  64 CALM      30.03S
CROOKSTON      MOSUNNY   75  61  60 N16G22    30.02F
$$
  *****  WEATHER ACROSS CENTRAL AND WEST MINNESOTA  *****

CITY           SKY/WX    TMP DP  RH WIND       PRES   REMARKS
BEMIDJI        SUNNY     73  61  64 E8        30.03S
PARK RAPIDS    CLOUDY    73  61  65 NE12      30.01F
6HR MIN TEMP:  70; 6HR MAX TEMP:  78;

WADENA         SUNNY     73  63  68 NE6       29.99F
DETROIT LAKES  SUNNY     75  57  53 N5        30.01F
MOORHEAD       SUNNY     75  61  60 N10       30.02R
FERGUS FALLS   SUNNY     73  57  56 NW14      30.01S
ELBOW LAKE     FAIR      74  60  60 W10       30.01R
MORRIS MN      SUNNY     79  59  50 N12G17    29.99R
STAPLES        PTSUNNY   73  63  68 NE6       29.99S
WHEATON        SUNNY     79  63  57 NW12G17   30.02S
$$
  *****  WEATHER ELSEWHERE ACROSS MINNESOTA  *****

CITY           SKY/WX    TMP DP  RH WIND       PRES   REMARKS
DULUTH         CLOUDY    65  58  78 NE7       30.03F
6HR MIN TEMP:  62; 6HR MAX TEMP:  66; 6HR PCP: TRACE;

INTRNTL FALLS  SUNNY     74  54  49 NE9       30.04R
6HR MIN TEMP:  73; 6HR MAX TEMP:  78;

ELY            CLOUDY    70  61  73 SE3       30.03S
CLOQUET        CLOUDY    64  55  72 NE5       30.03S
BRAINERD       MOSUNNY   69  63  81 NE12      30.00F
6HR MIN TEMP:  67; 6HR MAX TEMP:  73; 6HR PCP:  0.21;

HIBBING        CLOUDY    66  65  96 CALM      30.04R
6HR MIN TEMP:  63; 6HR MAX TEMP:  72; 6HR PCP:  0.01;

ALEXANDRIA     SUNNY     76  61  59 N8        30.00F
6HR MIN TEMP:  73; 6HR MAX TEMP:  79;

SAINT CLOUD    MOSUNNY   74  65  73 N8        29.96F
6HR MIN TEMP:  70; 6HR MAX TEMP:  78; 6HR PCP: TRACE;

MINNEAPOLIS    PTSUNNY   74  65  73 N8        29.94S
6HR MIN TEMP:  71; 6HR MAX TEMP:  79; 6HR PCP:  0.47;

$$

  *****  WEATHER ACROSS SOUTH DAKOTA  *****

CITY           SKY/WX    TMP DP  RH WIND       PRES   REMARKS
SIOUX FALLS    MOSUNNY   79  63  57 N14       29.98S
6HR MIN TEMP:  79; 6HR MAX TEMP:  83;

BROOKINGS      MOSUNNY   77  63  61 N12       30.01S
WATERTOWN      SUNNY     78  59  51 N14       30.04R
6HR MIN TEMP:  78; 6HR MAX TEMP:  82;

HURON          MOSUNNY   80  62  54 NE13      30.00S
6HR MIN TEMP:  79; 6HR MAX TEMP:  84;

SISSETON         N/A     77  58  51 NE9       30.01S
ABERDEEN       CLOUDY    77  58  51 N9        30.06R
6HR MIN TEMP:  77; 6HR MAX TEMP:  81;

MITCHELL       CLOUDY    82  64  54 NE7       30.00S
PIERRE         LGT RAIN  76  63  64 E8        30.04R
6HR MIN TEMP:  76; 6HR MAX TEMP:  88; 6HR PCP: TRACE;

MOBRIDGE       LGT RAIN  75  62  64 NE9       30.03F
RAPID CITY     SUNNY     79  59  50 NE7       30.10F
6HR MIN TEMP:  76; 6HR MAX TEMP:  83; 6HR PCP: TRACE;

$$

  *****  SOME WEATHER IN NEARBY STATES *****

CITY           SKY/WX    TMP DP  RH WIND       PRES   REMARKS
GLASGOW MT     RAIN      65  59  81 NE17G25   30.12R
6HR MIN TEMP:  64; 6HR MAX TEMP:  77; 6HR PCP:  0.05;

GREAT FALLS MT MOSUNNY   82  47  29 NE9       30.13F
6HR MIN TEMP:  75; 6HR MAX TEMP:  86;

CHEYENNE WY    CLOUDY    79  52  38 SE7       30.20F
6HR MIN TEMP:  73; 6HR MAX TEMP:  85; 6HR PCP:  0.01;

SCOTTSBLUFF NE SUNNY     85  56  37 E14       30.07F THUNDER
6HR MIN TEMP:  78; 6HR MAX TEMP:  90;

OMAHA NE       MOSUNNY   85  70  60 N7        29.92F
6HR MIN TEMP:  82; 6HR MAX TEMP:  88;

DES MOINES IA  PTSUNNY   84  67  56 W3        29.90F
6HR MIN TEMP:  82; 6HR MAX TEMP:  86;

DAVENPORT IA   MOSUNNY   82  69  64 SW5       29.91F
6HR MIN TEMP:  82; 6HR MAX TEMP:  85;

CHICAGO IL     CLOUDY    83  62  49 E9        29.91F
6HR MIN TEMP:  83; 6HR MAX TEMP:  89;

EAU CLAIRE WI  RAIN      68  67  96 NE6       29.95R FOG
6HR MIN TEMP:  68; 6HR MAX TEMP:  83; 6HR PCP:  0.28;

LA CROSSE WI   CLOUDY    82  67  60 W8        29.92R
6HR MIN TEMP:  82; 6HR MAX TEMP:  86;

$$

  *****  SOME NATIONAL WEATHER *****

CITY           SKY/WX    TMP DP  RH WIND       PRES   REMARKS
LA GUARDIA NY  PTCLDY    88  64  44 S8        29.88R
6HR MIN TEMP:  87; 6HR MAX TEMP:  94;                              C1F1C2F2C3F3C4F4C5F5C6F6C7F7C8F8C9F9CaFaCbFbCcFcCdFdCe!



USA.gov is the U.S. government's official web portal to all federal, state and local government web resources and services.